Time,TemperatureF,DewpointF,PressureIn,WindDirection,WindDirectionDegrees,WindSpeedMPH,WindSpeedGustMPH,Humidity,HourlyPrecipIn,Conditions,Clouds,dailyrainin,SoftwareType,DateUTC
2013-06-12 00:01:00,54.0,20.0,30.19,SW,215,0.0,0.0,26,0.00,,,0.00,,2013-06-12 07:01:00,
2013-06-12 00:12:00,54.0,21.0,30.19,SW,215,0.0,0.0,27,0.00,,,0.00,,2013-06-12 07:12:00,
2013-06-12 00:22:00,53.0,20.0,30.19,SW,215,0.0,0.0,27,0.00,,,0.00,,2013-06-12 07:22:00,
2013-06-12 00:33:00,53.0,21.0,30.19,SW,215,0.0,0.0,28,0.00,,,0.00,,2013-06-12 07:33:00,
2013-06-12 00:43:00,53.0,21.0,30.18,SW,215,0.0,0.0,28,0.00,,,0.00,,2013-06-12 07:43:00,
2013-06-12 00:53:00,53.0,23.0,30.18,SW,215,0.0,0.0,31,0.00,,,0.00,,2013-06-12 07:53:00,
2013-06-12 01:01:00,53.0,23.0,30.18,SW,215,0.0,0.0,31,0.00,,,0.00,,2013-06-12 08:01:00,
2013-06-12 01:11:00,52.0,24.0,30.18,SW,215,0.0,0.0,33,0.00,,,0.00,,2013-06-12 08:11:00,
2013-06-12 01:22:00,52.0,22.0,30.18,SW,215,0.0,0.0,31,0.00,,,0.00,,2013-06-12 08:22:00,
2013-06-12 01:33:00,52.0,19.0,30.18,SW,215,0.0,0.0,27,0.00,,,0.00,,2013-06-12 08:33:00,
2013-06-12 01:42:00,52.0,21.0,30.18,SW,215,0.0,0.0,29,0.00,,,0.00,,2013-06-12 08:42:00,
2013-06-12 01:52:00,52.0,23.0,30.18,SW,215,0.0,1.0,32,0.00,,,0.00,,2013-06-12 08:52:00,
2013-06-12 02:01:00,51.0,22.0,30.18,SW,215,0.0,1.0,32,0.00,,,0.00,,2013-06-12 09:01:00,
2013-06-12 02:11:00,51.0,22.0,30.18,SW,215,0.0,0.0,32,0.00,,,0.00,,2013-06-12 09:11:00,
2013-06-12 02:22:00,51.0,22.0,30.18,SW,215,0.0,0.0,32,0.00,,,0.00,,2013-06-12 09:22:00,
2013-06-12 02:33:00,51.0,22.0,30.17,SW,215,0.0,0.0,32,0.00,,,0.00,,2013-06-12 09:33:00,
2013-06-12 03:01:00,50.0,26.0,30.17,SW,215,0.0,0.0,39,0.00,,,0.00,,2013-06-12 10:01:00,
2013-06-12 03:22:00,50.0,24.0,30.17,SW,215,0.0,0.0,36,0.00,,,0.00,,2013-06-12 10:22:00,
2013-06-12 03:32:00,50.0,25.0,30.17,SW,215,0.0,0.0,38,0.00,,,0.00,,2013-06-12 10:32:00,
2013-06-12 03:42:00,50.0,25.0,30.16,SW,215,0.0,0.0,38,0.00,,,0.00,,2013-06-12 10:42:00,
2013-06-12 03:53:00,49.0,23.0,30.16,SW,215,0.0,1.0,35,0.00,,,0.00,,2013-06-12 10:53:00,
2013-06-12 04:01:00,49.0,23.0,30.16,SW,215,0.0,2.0,35,0.00,,,0.00,,2013-06-12 11:01:00,
2013-06-12 04:12:00,49.0,23.0,30.16,SW,215,1.0,2.0,35,0.00,,,0.00,,2013-06-12 11:12:00,
2013-06-12 04:24:00,49.0,26.0,30.16,SW,215,1.0,2.0,40,0.00,,,0.00,,2013-06-12 11:24:00,
2013-06-12 04:33:00,49.0,26.0,30.16,SW,215,0.0,2.0,41,0.00,,,0.00,,2013-06-12 11:33:00,
2013-06-12 05:23:00,48.0,29.0,30.16,SW,215,0.0,1.0,48,0.00,,,0.00,,2013-06-12 12:23:00,
2013-06-12 05:53:00,47.0,23.0,30.16,SW,215,0.0,2.0,38,0.00,,,0.00,,2013-06-12 12:53:00,
2013-06-12 06:01:00,47.0,23.0,30.16,SW,215,0.0,2.0,38,0.00,,,0.00,,2013-06-12 13:01:00,
2013-06-12 06:11:00,47.0,21.0,30.16,SW,215,0.0,0.0,35,0.00,,,0.00,,2013-06-12 13:11:00,
2013-06-12 06:22:00,48.0,24.0,30.16,SW,215,0.0,1.0,39,0.00,,,0.00,,2013-06-12 13:22:00,
2013-06-12 06:32:00,48.0,24.0,30.17,SW,215,1.0,2.0,38,0.00,,,0.00,,2013-06-12 13:32:00,
2013-06-12 06:43:00,48.0,24.0,30.17,SW,215,1.0,2.0,39,0.00,,,0.00,,2013-06-12 13:43:00,
2013-06-12 06:53:00,49.0,25.0,30.17,SW,215,1.0,2.0,39,0.00,,,0.00,,2013-06-12 13:53:00,
2013-06-12 07:01:00,51.0,27.0,30.17,SW,215,0.0,2.0,39,0.00,,,0.00,,2013-06-12 14:01:00,
2013-06-12 07:23:00,53.0,29.0,30.17,SW,215,0.0,2.0,39,0.00,,,0.00,,2013-06-12 14:23:00,
2013-06-12 07:33:00,53.0,29.0,30.17,SW,215,0.0,2.0,39,0.00,,,0.00,,2013-06-12 14:33:00,
2013-06-12 07:43:00,53.0,29.0,30.17,SW,215,0.0,2.0,39,0.00,,,0.00,,2013-06-12 14:43:00,